Location: Portus Ritupis
(51.2833°N, 1.3333°E)
Time: 00:34:09
(UTC+00:00)

Daily predictions for brighter satellites

Satellite Brightness Start Highest point End
(mag) Time Altitude Azimuth Time Altitude Azimuth Time Altitude Azimuth
Cosmos 2322 3.9 00:02:20 10° NNW 00:08:03 72° ENE 00:12:47 15° SE
ERS-2 2.1 00:06:53 10° NNE 00:10:29 71° WNW 00:12:02 32° SSW
CRYOSAT 2 4.4 00:10:31 27° S 00:13:12 75° W 00:18:08 10° N
Cosmos 990 Rocket 4.1 00:08:20 10° NNW 00:13:30 75° ENE 00:17:12 19° SSE
ATLAS 5 CENTAUR R/B 2.9 00:12:26 10° W 00:16:05 36° NNW 00:20:17 10° NE
Cosmos 1605 Rocket 4.0 00:12:21 10° N 00:18:48 85° W 00:23:03 23° S
ALOS 2 4.2 00:17:12 17° SW 00:19:12 23° W 00:22:45 10° NW
Cosmos 1076 Rocket 3.8 00:23:38 27° SSE 00:25:50 58° E 00:30:08 10° NNE
USA 290 2.7 00:23:52 10° NNW 00:27:05 58° ENE 00:28:45 25° SE
Meteor 1-26 Rocket 4.4 00:23:06 10° N 00:28:57 77° ENE 00:33:16 20° SSE
Cosmos 1933 3.2 00:26:12 10° N 00:30:14 89° ENE 00:32:12 29° S
ISS -2.8 00:34:35 29° SE 00:34:35 29° SE 00:37:28 10° E
SL-27 R/B 2.3 00:34:07 39° S 00:35:11 70° ESE 00:38:27 10° NNE
Cosmos 2322 Rocket 3.6 00:31:14 10° NW 00:35:42 24° WSW 00:38:10 18° SW
PSLV R/B 4.1 00:33:12 10° N 00:37:55 61° WNW 00:40:46 23° SW
Cosmos 1953 Rocket 4.4 00:35:52 21° SW 00:38:27 43° WNW 00:42:41 10° N
Cosmos 540 Rocket 4.3 00:35:46 21° SSE 00:38:38 38° ESE 00:43:23 10° NE
Geosat 4.2 00:34:50 11° SE 00:39:39 73° NE 00:44:41 10° NNW
MOZ.5/SAFIR/RUBIN 5/SL-8 4.1 00:40:01 17° SSE 00:43:35 65° ENE 00:48:16 10° N
NOSS 3-2 (A) 4.0 00:42:18 22° S 00:45:18 39° ESE 00:51:07 10° NE
COSMOS 2487 2.0 00:46:13 40° SSW 00:47:13 89° NNW 00:50:18 10° NNE
SJ 16-02 3.5 00:45:42 10° WNW 00:47:44 13° W 00:49:15 11° WSW
Cosmos 1340 Rocket 4.2 00:48:35 17° WSW 00:50:56 29° WNW 00:54:26 10° N
Cosmos 2333 Rocket 2.7 00:46:10 10° NW 00:51:36 44° WSW 00:54:49 23° SSW
Cosmos 2151 3.0 00:51:31 27° S 00:53:49 85° ESE 00:58:09 10° NNE
Lacrosse 4 Rocket 4.3 00:51:04 10° NNW 00:53:57 18° NNE 00:56:51 10° E
Cosmos 1980 4.4 00:49:26 10° NNW 00:55:02 55° NE 01:00:35 10° SE
Cosmos 1340 3.8 00:52:19 10° N 00:55:50 38° ENE 00:58:52 13° SE
Cosmos 1898 Rocket 3.4 00:51:45 10° NNW 00:56:56 75° WSW 01:00:41 19° SSE
Cosmos 1151 Rocket 4.1 00:53:02 10° N 00:57:15 43° ENE 01:01:07 12° SE
Cosmos 2285 Rocket 4.2 00:53:03 21° S 00:57:24 64° ESE 01:03:46 10° NNE
Gbstr 26 Del rocket 3.3 00:53:35 13° WSW 00:57:35 72° SSE 01:03:13 10° ENE
Cosmos 1812 2.7 00:55:56 10° NNW 00:59:45 70° W 01:01:39 28° S
CENTAUR R/B 3.0 00:56:43 21° S 01:00:24 47° ESE 01:07:07 10° NE
Cosmos 2221 3.9 00:59:26 10° NNW 01:03:04 26° W 01:05:05 19° SW
USA 267 3.7 00:57:07 10° ENE 01:03:35 64° NNW 01:10:01 10° W
Cosmos 1937 Rocket 3.5 00:59:57 10° NNW 01:05:15 86° WSW 01:09:37 15° SSE
Meteor 2-3 Rocket 3.9 01:03:14 21° SSW 01:06:58 67° WNW 01:12:33 10° N
NOSS 0 Rocket 3.9 01:01:17 10° NNW 01:07:30 90° ENE 01:13:40 10° SSE
BREEZE-M DEB (TANK) 3.4 01:05:56 18° WSW 01:08:13 63° SSE 01:17:06 10° E
Cosmos 1782 3.4 01:07:05 10° NNW 01:10:52 42° W 01:12:43 25° SSW
SL-16 R/B 4.1 01:06:09 10° NNW 01:11:11 31° NE 01:16:11 10° ESE
Cosmos 2360 Rocket 3.7 01:07:23 10° NW 01:11:23 20° W 01:13:44 16° SW
Cosmos 1862 3.6 01:09:45 23° S 01:12:04 60° E 01:15:57 10° NNE
Resurs 1-4 Rocket 2.8 01:09:50 10° NNE 01:14:59 46° E 01:19:05 15° SSE
Cosmos 2227 Rocket 4.0 01:11:48 10° SSE 01:16:01 22° E 01:20:14 10° NE
MOS 1 Rocket 4.0 01:15:22 10° SSE 01:20:28 65° ENE 01:25:49 10° N
Cosmos 44 3.9 01:19:44 12° WSW 01:23:51 48° NW 01:28:08 10° NE
CZ-2D R/B 2.6 01:18:45 10° NNE 01:23:52 51° E 01:27:58 16° S
COSMOS 2455 2.9 01:22:05 10° NW 01:28:09 88° NE 01:34:11 10° SE
Cosmos 1766 Rocket 4.3 01:26:26 15° SSE 01:29:49 45° E 01:33:58 10° NNE
BREEZE-M DEB (TANK) 4.5 01:23:53 10° WNW 01:30:17 23° WSW 01:31:39 20° SSW
CZ-4 R/B 4.4 01:27:14 10° NNE 01:32:03 56° ESE 01:35:58 16° S
NOSS 3-2 (C) 4.0 01:28:59 18° S 01:32:50 44° ESE 01:38:53 10° NE
UNK 4.1 01:30:28 10° SSE 01:35:05 66° ENE 01:39:44 10° N
Cosmos 2237 Rocket 2.2 01:31:18 10° NNW 01:37:01 87° WSW 01:42:41 10° SSE
Cosmos 1459 Rocket 4.1 01:32:13 10° NNW 01:38:12 62° W 01:43:01 16° S
COSMOS 2428 3.4 01:33:01 10° NW 01:38:14 37° WSW 01:42:02 17° SSW
Cosmos 220 Rocket 4.0 01:33:57 10° NNW 01:38:23 76° WSW 01:42:34 11° SSE
SL-4 R/B 1.7 01:34:53 10° W 01:38:31 88° N 01:42:26 10° E
Cosmos 1727 Rocket 4.5 01:35:56 17° SW 01:40:44 51° WNW 01:46:51 10° N
SL-16 R/B 2.6 01:35:16 10° SSE 01:41:33 90° WSW 01:47:52 10° NNW
ADEOS II 2.9 01:40:01 10° NNE 01:45:05 45° E 01:50:00 10° S
Cosmos 2297 Rocket 2.8 01:40:42 15° S 01:45:08 49° ESE 01:50:35 10° NE
Cosmos 1763 Rocket 4.2 01:41:41 14° SW 01:45:57 46° WNW 01:51:04 10° NNE
Cosmos 2219 4.5 01:41:21 10° SSE 01:46:14 31° ESE 01:51:08 10° NE
Cosmos 372 Rocket 4.2 01:42:40 10° NNW 01:47:47 54° WSW 01:52:20 13° S
Cosmos 2219 Rocket 3.5 01:44:13 10° NW 01:48:34 23° WSW 01:51:29 16° SW
USA 238 DEB 3.9 01:45:54 16° SSW 01:51:01 58° SE 01:57:44 10° NE
USA 238 3.9 01:46:03 16° SSW 01:51:10 58° SE 01:57:53 10° NE
Thor Agena Rocket 3.7 01:46:26 10° N 01:51:35 64° WNW 01:55:38 16° SSW
Cosmos 1184 Rocket 3.5 01:51:12 10° NNW 01:53:59 33° W 01:55:25 21° SW
Cosmos 841 Rocket 3.5 01:51:22 17° SSW 01:55:24 79° WNW 02:00:38 10° NNE
BREEZE-M DEB (TANK) 2.1 01:54:45 10° W 01:58:21 49° SSW 02:00:29 10° ESE
USA 290 4.5 01:59:52 10° W 02:00:57 11° W 02:01:25 11° WSW
ATLAS 5 CENTAUR R/B 4.2 01:58:42 10° NW 02:01:53 19° N 02:05:27 10° NE
Okean 3 Rocket 3.7 01:58:09 14° S 02:02:04 77° E 02:06:38 10° NNE
Cosmos 2233 Rocket 4.0 01:57:39 10° N 02:03:51 89° E 02:10:02 10° S
Cosmos 371 Rocket 3.7 01:59:05 10° NNW 02:03:55 66° ENE 02:08:42 10° SE
Cosmos 1725 Rocket 4.1 01:58:06 10° NNW 02:04:14 64° W 02:10:14 10° S
Cosmos 2123 Rocket 4.1 02:03:27 14° SSW 02:08:59 72° WNW 02:15:21 10° N
ISS -3.8 02:07:38 10° WSW 02:11:00 83° SSE 02:14:23 10° E
IDEFIX/ARIANE 42P 2.9 02:06:59 10° NNE 02:12:12 65° ESE 02:17:21 10° S
Meteor 1-27 Rocket 3.7 02:07:12 10° NNW 02:12:50 77° W 02:18:21 10° S
Helios 1A 3.1 02:11:51 10° SSE 02:16:03 81° ENE 02:20:14 10° NNW
Okean 1 4.3 02:13:35 10° N 02:17:26 47° ENE 02:21:15 10° SSE
Cosmos 2016 Rocket 4.4 02:12:14 10° NNW 02:18:02 47° W 02:23:41 11° SSW
Cosmos 540 Rocket 4.4 02:15:34 11° WSW 02:20:14 38° NW 02:25:05 10° NNE
YAOGAN 11 4.3 02:16:03 10° S 02:20:32 59° WSW 02:25:00 10° NNW
SL-23 DEB 3.4 02:23:57 10° WSW 02:27:05 84° SSE 02:31:01 10° E
NPP 3.9 02:22:36 10° N 02:27:57 61° WNW 02:33:05 11° SSW
Cosmos 1356 Rocket 3.6 02:25:54 13° SSW 02:29:22 54° WNW 02:33:18 10° N
MSX 4.1 02:24:40 10° NNE 02:30:29 72° ESE 02:36:14 10° S
Cosmos 1340 4.3 02:28:18 10° NW 02:31:01 19° W 02:33:25 11° SW
Lacrosse 4 Rocket 1.3 02:29:05 10° NW 02:33:09 88° NE 02:37:15 10° SE
SAR-Lupe-2 3.5 02:29:38 10° NNE 02:33:15 87° WNW 02:36:49 10° SSW
Cosmos 1151 Rocket 4.4 02:31:03 10° NW 02:34:33 24° W 02:37:55 11° SW
NOSS 3-2 (A) 3.9 02:30:13 10° WSW 02:35:52 58° NW 02:42:35 10° NE
IRS-1D 4.0 02:30:58 10° NNE 02:35:55 56° E 02:40:46 10° S
Cosmos 1515 4.4 02:35:39 10° NNW 02:39:09 37° W 02:42:39 10° SSW
AQUA 4.2 02:37:36 10° N 02:42:15 54° WNW 02:46:52 10° SW
Meteor 1-19 Rocket 4.4 02:37:14 10° NNW 02:43:17 82° W 02:49:17 10° S
Gbstr 26 Del rocket 3.7 02:39:34 10° W 02:44:37 85° N 02:50:58 10° E
USA 267 4.1 02:39:50 10° E 02:46:11 55° N 02:52:32 10° WNW
ATLAS CENTAUR R/B 4.0 02:43:24 10° SSE 02:46:31 18° ESE 02:49:42 10° ENE
CENTAUR R/B 3.2 02:44:53 10° WSW 02:51:00 56° NNW 02:58:27 10° NE
Cosmos 1400 Rocket 2.9 02:50:04 10° SSW 02:54:02 65° WNW 02:58:04 10° N
Resurs 1-4 Rocket 3.2 02:49:56 10° N 02:54:40 33° WNW 02:59:23 10° SW
SL-16 R/B 2.2 02:50:06 10° NW 02:55:45 66° WSW 03:01:23 10° SSE
Cosmos 2298 Rocket 4.2 02:52:07 10° NNW 02:57:22 58° WSW 03:02:36 10° S
Cosmos 1515 Rocket 4.2 02:53:23 10° NNW 02:57:27 38° W 03:01:28 10° SSW
Cosmos 1315 Rocket 4.0 02:54:18 10° SSE 02:58:02 41° E 03:01:46 10° NNE
Cosmos 2227 Rocket 2.3 02:53:48 10° SW 02:59:28 76° WNW 03:05:11 10° NNE
CZ-2D R/B 3.3 02:59:14 10° N 03:03:41 29° WNW 03:08:09 10° WSW
Cosmos 1891 Rocket 4.5 02:58:14 10° NNW 03:04:21 77° W 03:10:32 10° S
Cosmos 2082 4.0 03:01:58 10° SSW 03:07:32 66° ESE 03:13:08 10° NE
